AAL1825 KPHL-KDCA

Flight info

Callsign AAL1825
Flight time 0h 29m
Altitude 10000
Route DQO BAINS SUDOY CLIPR CLIPR3
Aircraft E190/M-SDE3GILORVW/S

Departure

Time 2026-05-05 06:13
Airport Philadelphia International Airport (KPHL)

Arrival

Time 2026-05-05 06:43
Airport Ronald Reagan Washington National Airport (KDCA)
Time Latitude Longitude Altitude Speed Heading
2026-05-05 05:58 39.87572 -75.24221 16 ft 0 kts 50°
2026-05-05 06:05 39.87573 -75.24221 17 ft 0 kts 50°
2026-05-05 06:06 39.87564 -75.24233 17 ft 2 kts 50°
2026-05-05 06:06 39.87555 -75.24248 17 ft 2 kts 50°
2026-05-05 06:06 39.87547 -75.24264 17 ft 2 kts 76°
2026-05-05 06:06 39.87547 -75.24283 17 ft 1 kts 108°
2026-05-05 06:07 39.87544 -75.24276 17 ft 2 kts 126°
2026-05-05 06:07 39.87527 -75.24268 17 ft 1 kts 171°
2026-05-05 06:07 39.87524 -75.24267 17 ft 0 kts 169°
2026-05-05 06:08 39.87521 -75.24266 16 ft 2 kts 169°
2026-05-05 06:09 39.87481 -75.24256 16 ft 6 kts 170°
2026-05-05 06:09 39.87433 -75.24241 16 ft 7 kts 166°
2026-05-05 06:09 39.87381 -75.24229 16 ft 7 kts 171°
2026-05-05 06:09 39.87310 -75.24204 15 ft 11 kts 154°
2026-05-05 06:10 39.87266 -75.24134 16 ft 9 kts 82°
2026-05-05 06:10 39.87288 -75.24027 16 ft 7 kts 75°
2026-05-05 06:10 39.87291 -75.24013 16 ft 5 kts 75°
2026-05-05 06:10 39.87321 -75.23862 16 ft 31 kts 77°
2026-05-05 06:11 39.87382 -75.23566 17 ft 33 kts 76°
2026-05-05 06:11 39.87434 -75.23271 17 ft 33 kts 68°
2026-05-05 06:11 39.87494 -75.22989 18 ft 32 kts 78°
2026-05-05 06:11 39.87552 -75.22707 17 ft 32 kts 78°
2026-05-05 06:12 39.87599 -75.22433 19 ft 20 kts 108°
2026-05-05 06:12 39.87523 -75.22351 19 ft 14 kts 219°
2026-05-05 06:12 39.87470 -75.22553 19 ft 38 kts 255°
2026-05-05 06:12 39.87351 -75.23135 18 ft 83 kts 254°
2026-05-05 06:13 39.87151 -75.24174 29 ft 140 kts 254°
2026-05-05 06:13 39.86883 -75.25495 441 ft 161 kts 253°
2026-05-05 06:13 39.86611 -75.26839 1420 ft 148 kts 252°
2026-05-05 06:13 39.86373 -75.28023 2232 ft 144 kts 252°
2026-05-05 06:14 39.85907 -75.29295 2701 ft 173 kts 235°
2026-05-05 06:14 39.85133 -75.30667 3216 ft 206 kts 234°
2026-05-05 06:14 39.84204 -75.32299 3743 ft 238 kts 235°
2026-05-05 06:14 39.83192 -75.34066 4708 ft 251 kts 235°
2026-05-05 06:15 39.82155 -75.35872 5863 ft 254 kts 236°
2026-05-05 06:15 39.81112 -75.37685 6999 ft 255 kts 237°
2026-05-05 06:15 39.80074 -75.39489 8072 ft 257 kts 237°
2026-05-05 06:15 39.79005 -75.41344 9090 ft 261 kts 237°
2026-05-05 06:16 39.77906 -75.43253 9878 ft 270 kts 236°
2026-05-05 06:16 39.76768 -75.45225 9959 ft 272 kts 236°
2026-05-05 06:16 39.75641 -75.47176 9978 ft 269 kts 236°
2026-05-05 06:16 39.74500 -75.49152 9999 ft 284 kts 236°
2026-05-05 06:17 39.73264 -75.51293 10012 ft 310 kts 236°
2026-05-05 06:17 39.71949 -75.53565 9994 ft 313 kts 236°
2026-05-05 06:17 39.70589 -75.55911 9991 ft 314 kts 236°
2026-05-05 06:17 39.69289 -75.58155 9985 ft 313 kts 236°
2026-05-05 06:18 39.68048 -75.60482 9976 ft 311 kts 248°
2026-05-05 06:18 39.67506 -75.63191 10001 ft 310 kts 261°
2026-05-05 06:18 39.67146 -75.65967 9990 ft 309 kts 261°
2026-05-05 06:18 39.66791 -75.68720 9988 ft 309 kts 261°
2026-05-05 06:19 39.66435 -75.71493 9986 ft 308 kts 261°
2026-05-05 06:19 39.66077 -75.74283 9988 ft 308 kts 261°
2026-05-05 06:19 39.65717 -75.77083 9995 ft 309 kts 261°
2026-05-05 06:19 39.65365 -75.79811 9990 ft 309 kts 261°
2026-05-05 06:20 39.65002 -75.82621 9980 ft 309 kts 261°
2026-05-05 06:20 39.64648 -75.85357 9977 ft 307 kts 261°
2026-05-05 06:20 39.64289 -75.88126 9975 ft 308 kts 261°
2026-05-05 06:20 39.63934 -75.90859 9976 ft 308 kts 261°
2026-05-05 06:21 39.63573 -75.93636 9983 ft 309 kts 261°
2026-05-05 06:21 39.63221 -75.96341 9983 ft 308 kts 261°
2026-05-05 06:21 39.62862 -75.99085 9974 ft 308 kts 261°
2026-05-05 06:21 39.62502 -76.01842 9972 ft 308 kts 261°
2026-05-05 06:22 39.62141 -76.04599 9962 ft 308 kts 261°
2026-05-05 06:22 39.61780 -76.07342 9974 ft 308 kts 261°
2026-05-05 06:22 39.61418 -76.10098 9973 ft 308 kts 261°
2026-05-05 06:22 39.61044 -76.12835 9976 ft 309 kts 257°
2026-05-05 06:23 39.60066 -76.15351 9993 ft 312 kts 237°
2026-05-05 06:23 39.58774 -76.17658 9981 ft 312 kts 236°
2026-05-05 06:23 39.57493 -76.19925 9972 ft 313 kts 236°
2026-05-05 06:23 39.56193 -76.22218 9985 ft 312 kts 236°
2026-05-05 06:24 39.54916 -76.24464 9970 ft 312 kts 236°
2026-05-05 06:24 39.53630 -76.26726 9970 ft 312 kts 236°
2026-05-05 06:24 39.52316 -76.29034 9953 ft 312 kts 236°
2026-05-05 06:24 39.51024 -76.31303 9963 ft 313 kts 236°
2026-05-05 06:25 39.49742 -76.33550 9976 ft 312 kts 236°
2026-05-05 06:25 39.48423 -76.35862 9987 ft 313 kts 236°
2026-05-05 06:25 39.47150 -76.38092 9974 ft 313 kts 236°
2026-05-05 06:25 39.45852 -76.40364 9981 ft 312 kts 236°
2026-05-05 06:26 39.44407 -76.42480 9959 ft 316 kts 221°
2026-05-05 06:26 39.42598 -76.44100 9965 ft 318 kts 218°
2026-05-05 06:26 39.40756 -76.45702 9984 ft 319 kts 218°
2026-05-05 06:26 39.38903 -76.47310 9985 ft 320 kts 218°
2026-05-05 06:27 39.37049 -76.48917 9985 ft 319 kts 218°
2026-05-05 06:27 39.33371 -76.52097 9984 ft 319 kts 218°
2026-05-05 06:27 39.31526 -76.53693 9980 ft 319 kts 218°
2026-05-05 06:28 39.29673 -76.55293 9977 ft 318 kts 218°
2026-05-05 06:28 39.27812 -76.56898 9978 ft 318 kts 218°
2026-05-05 06:28 39.25970 -76.58488 9974 ft 318 kts 218°
2026-05-05 06:28 39.24126 -76.60077 9977 ft 319 kts 218°
2026-05-05 06:29 39.22245 -76.61697 9997 ft 320 kts 218°
2026-05-05 06:29 39.20353 -76.63326 9990 ft 319 kts 218°
2026-05-05 06:29 39.18500 -76.64920 9980 ft 320 kts 218°
2026-05-05 06:29 39.16707 -76.66597 9989 ft 317 kts 224°
2026-05-05 06:30 39.15081 -76.68518 9991 ft 317 kts 225°
2026-05-05 06:30 39.13463 -76.70439 9987 ft 317 kts 225°
2026-05-05 06:30 39.11819 -76.72390 9987 ft 316 kts 225°
2026-05-05 06:30 39.10214 -76.74291 9995 ft 315 kts 225°
2026-05-05 06:31 39.08642 -76.76150 9972 ft 294 kts 225°
2026-05-05 06:31 39.07187 -76.77872 9958 ft 271 kts 226°
2026-05-05 06:31 39.05815 -76.79494 9968 ft 265 kts 226°
2026-05-05 06:31 39.04450 -76.81110 9981 ft 266 kts 226°
2026-05-05 06:32 39.03083 -76.82726 9786 ft 271 kts 226°
2026-05-05 06:32 39.01691 -76.84368 9509 ft 269 kts 226°
2026-05-05 06:32 39.00306 -76.86004 9216 ft 268 kts 226°
2026-05-05 06:32 38.98927 -76.87631 8909 ft 266 kts 226°
2026-05-05 06:33 38.97691 -76.89369 8606 ft 259 kts 245°
2026-05-05 06:33 38.97329 -76.91593 8338 ft 256 kts 269°
2026-05-05 06:33 38.97368 -76.93874 8035 ft 256 kts 271°
2026-05-05 06:33 38.97429 -76.96156 7743 ft 255 kts 271°
2026-05-05 06:34 38.97497 -76.98419 7453 ft 254 kts 271°
2026-05-05 06:34 38.97570 -77.00706 7164 ft 253 kts 271°
2026-05-05 06:34 38.97989 -77.02873 6888 ft 258 kts 298°
2026-05-05 06:34 38.99217 -77.04611 6607 ft 263 kts 311°
2026-05-05 06:35 39.00537 -77.06216 6294 ft 263 kts 311°
2026-05-05 06:35 39.01866 -77.07829 5999 ft 261 kts 311°
2026-05-05 06:35 39.03189 -77.09431 5708 ft 260 kts 311°
2026-05-05 06:35 39.04490 -77.11039 5421 ft 259 kts 310°
2026-05-05 06:36 39.05779 -77.12642 5135 ft 257 kts 310°
2026-05-05 06:36 39.07060 -77.14238 4852 ft 256 kts 310°
2026-05-05 06:36 39.08144 -77.15974 4347 ft 239 kts 283°
2026-05-05 06:36 39.08136 -77.17862 4314 ft 195 kts 243°
2026-05-05 06:37 39.07207 -77.18928 4286 ft 177 kts 200°
2026-05-05 06:37 39.05977 -77.18696 4362 ft 191 kts 162°
2026-05-05 06:37 39.04763 -77.17956 4337 ft 191 kts 168°
2026-05-05 06:37 39.03513 -77.17381 4146 ft 190 kts 173°
2026-05-05 06:38 39.02254 -77.16916 3970 ft 183 kts 175°
2026-05-05 06:38 39.01028 -77.16531 3685 ft 181 kts 177°
2026-05-05 06:38 38.99798 -77.16183 3410 ft 178 kts 178°
2026-05-05 06:38 38.98605 -77.15869 3157 ft 174 kts 179°
2026-05-05 06:39 38.97413 -77.15569 2910 ft 173 kts 179°
2026-05-05 06:39 38.96273 -77.15044 2664 ft 185 kts 153°
2026-05-05 06:39 38.95272 -77.13963 2466 ft 187 kts 149°
2026-05-05 06:39 38.94338 -77.12917 2202 ft 169 kts 150°
2026-05-05 06:40 38.93506 -77.11990 2031 ft 149 kts 154°
2026-05-05 06:40 38.92696 -77.11286 1776 ft 131 kts 162°
2026-05-05 06:40 38.91956 -77.10678 1558 ft 119 kts 160°
2026-05-05 06:40 38.91244 -77.10075 1392 ft 124 kts 149°
2026-05-05 06:41 38.90782 -77.09077 1295 ft 136 kts 122°
2026-05-05 06:41 38.90431 -77.07939 1166 ft 137 kts 121°
2026-05-05 06:41 38.90034 -77.06828 961 ft 131 kts 139°
2026-05-05 06:41 38.89387 -77.06033 803 ft 126 kts 145°
2026-05-05 06:42 38.88727 -77.05274 631 ft 126 kts 144°
2026-05-05 06:42 38.88082 -77.04534 464 ft 125 kts 143°
2026-05-05 06:42 38.87352 -77.03948 278 ft 123 kts 171°
2026-05-05 06:42 38.86499 -77.03901 129 ft 122 kts 176°
2026-05-05 06:43 38.85665 -77.03823 34 ft 114 kts 176°
2026-05-05 06:43 38.85076 -77.03765 23 ft 36 kts 177°
2026-05-05 06:43 38.84887 -77.03824 23 ft 24 kts 242°
2026-05-05 06:43 38.84900 -77.03889 23 ft 5 kts 343°
2026-05-05 06:44 38.84942 -77.03899 23 ft 7 kts 354°
2026-05-05 06:44 38.85043 -77.03909 23 ft 21 kts 357°
2026-05-05 06:44 38.85195 -77.03919 23 ft 21 kts 355°
2026-05-05 06:44 38.85330 -77.03944 23 ft 11 kts 307°
2026-05-05 06:45 38.85387 -77.03999 23 ft 11 kts 353°
2026-05-05 06:45 38.85467 -77.04009 23 ft 11 kts 355°
2026-05-05 06:45 38.85547 -77.04031 23 ft 12 kts 346°
2026-05-05 06:45 38.85632 -77.04041 23 ft 12 kts 357°
2026-05-05 06:46 38.85709 -77.04086 23 ft 12 kts 322°
2026-05-05 06:46 38.85781 -77.04157 23 ft 13 kts 323°
2026-05-05 06:46 38.85852 -77.04234 23 ft 8 kts 306°
2026-05-05 06:46 38.85837 -77.04286 23 ft 7 kts 232°
2026-05-05 06:47 38.85828 -77.04301 23 ft 0 kts 234°
2026-05-05 06:47 38.85829 -77.04301 23 ft 0 kts 234°